Year,Month,Day,Hour,Minute,Value (Times are PST for temperature in C)
2009,06,27,00,00,11.20
2009,06,27,00,01,11.10
2009,06,27,00,02,11.10
2009,06,27,00,03,11.10
2009,06,27,00,04,11.10
2009,06,27,00,05,11.10
2009,06,27,00,06,11.10
2009,06,27,00,07,11.00
2009,06,27,00,08,11.00
2009,06,27,00,09,11.00
2009,06,27,00,10,10.90
2009,06,27,00,11,10.90
2009,06,27,00,12,10.80
2009,06,27,00,13,10.80
2009,06,27,00,14,10.80
2009,06,27,00,15,10.80
2009,06,27,00,16,10.80
2009,06,27,00,17,10.70
2009,06,27,00,18,10.70
2009,06,27,00,19,10.60
2009,06,27,00,20,10.60
2009,06,27,00,21,10.50
2009,06,27,00,22,10.40
2009,06,27,00,23,10.40
2009,06,27,00,24,10.30
2009,06,27,00,25,10.30
2009,06,27,00,26,10.30
2009,06,27,00,27,10.20
2009,06,27,00,28,10.10
2009,06,27,00,29,10.10
2009,06,27,00,30,10.00
2009,06,27,00,31,10.00
2009,06,27,00,32,9.90
2009,06,27,00,33,9.80
2009,06,27,00,34,9.80
2009,06,27,00,35,9.80
2009,06,27,00,36,9.80
2009,06,27,00,37,9.80
2009,06,27,00,38,9.80
2009,06,27,00,39,9.80
2009,06,27,00,40,9.80
2009,06,27,00,41,9.80
2009,06,27,00,42,9.80
2009,06,27,00,43,9.80
2009,06,27,00,44,9.80
2009,06,27,00,45,9.80
2009,06,27,00,46,9.80
2009,06,27,00,47,9.80
2009,06,27,00,48,9.80
2009,06,27,00,49,9.80
2009,06,27,00,50,9.80
2009,06,27,00,51,9.90
2009,06,27,00,52,9.90
2009,06,27,00,53,9.90
2009,06,27,00,54,10.00
2009,06,27,00,55,10.00
2009,06,27,00,56,10.10
2009,06,27,00,57,10.10
2009,06,27,00,58,10.20
2009,06,27,00,59,10.20
2009,06,27,01,00,10.20
2009,06,27,01,01,10.20
2009,06,27,01,02,10.20
2009,06,27,01,03,10.20
2009,06,27,01,04,10.20
2009,06,27,01,05,10.20
2009,06,27,01,06,10.20
2009,06,27,01,07,10.20
2009,06,27,01,08,10.20
2009,06,27,01,09,10.20
2009,06,27,01,10,10.10
2009,06,27,01,11,10.10
2009,06,27,01,12,10.10
2009,06,27,01,13,10.00
2009,06,27,01,14,10.00
2009,06,27,01,15,9.90
2009,06,27,01,16,9.90
2009,06,27,01,17,9.90
2009,06,27,01,18,9.80
2009,06,27,01,19,9.80
2009,06,27,01,20,9.80
2009,06,27,01,21,9.70
2009,06,27,01,22,9.70
2009,06,27,01,23,9.70
2009,06,27,01,24,9.60
2009,06,27,01,25,9.60
2009,06,27,01,26,9.60
2009,06,27,01,27,9.60
2009,06,27,01,28,9.50
2009,06,27,01,29,9.50
2009,06,27,01,30,9.50
2009,06,27,01,31,9.50
2009,06,27,01,32,9.50
2009,06,27,01,33,9.50
2009,06,27,01,34,9.50
2009,06,27,01,35,9.40
2009,06,27,01,36,9.40
2009,06,27,01,37,9.40
2009,06,27,01,38,9.40
2009,06,27,01,39,9.40
2009,06,27,01,40,9.40
2009,06,27,01,41,9.40
2009,06,27,01,42,9.30
2009,06,27,01,43,9.30
2009,06,27,01,44,9.30
2009,06,27,01,45,9.30
2009,06,27,01,46,9.40
2009,06,27,01,47,9.40
2009,06,27,01,48,9.40
2009,06,27,01,49,9.40
2009,06,27,01,50,9.40
2009,06,27,01,51,9.40
2009,06,27,01,52,9.40
2009,06,27,01,53,9.40
2009,06,27,01,54,9.40
2009,06,27,01,55,9.40
2009,06,27,01,56,9.50
2009,06,27,01,57,9.50
2009,06,27,01,58,9.60
2009,06,27,01,59,9.60
2009,06,27,02,00,9.60
2009,06,27,02,01,9.60
2009,06,27,02,02,9.70
2009,06,27,02,03,9.70
2009,06,27,02,04,9.70
2009,06,27,02,05,9.70
2009,06,27,02,06,9.70
2009,06,27,02,07,9.70
2009,06,27,02,08,9.80
2009,06,27,02,09,9.80
2009,06,27,02,10,9.80
2009,06,27,02,11,9.80
2009,06,27,02,12,9.90
2009,06,27,02,13,9.90
2009,06,27,02,14,9.90
2009,06,27,02,15,9.90
2009,06,27,02,16,9.90
2009,06,27,02,17,9.90
2009,06,27,02,18,9.90
2009,06,27,02,19,9.90
2009,06,27,02,20,9.90
2009,06,27,02,21,9.90
2009,06,27,02,22,9.90
2009,06,27,02,23,9.90
2009,06,27,02,24,9.90
2009,06,27,02,25,9.80
2009,06,27,02,26,9.80
2009,06,27,02,27,9.80
2009,06,27,02,28,9.80
2009,06,27,02,29,9.80
2009,06,27,02,30,9.80
2009,06,27,02,31,9.80
2009,06,27,02,32,9.80
2009,06,27,02,33,9.70
2009,06,27,02,34,9.70
2009,06,27,02,35,9.70
2009,06,27,02,36,9.70
2009,06,27,02,37,9.70
2009,06,27,02,38,9.70
2009,06,27,02,39,9.70
2009,06,27,02,40,9.60
2009,06,27,02,41,9.60
2009,06,27,02,42,9.60
2009,06,27,02,43,9.60
2009,06,27,02,44,9.60
2009,06,27,02,45,9.60
2009,06,27,02,46,9.60
2009,06,27,02,47,9.60
2009,06,27,02,48,9.60
2009,06,27,02,49,9.60
2009,06,27,02,50,9.60
2009,06,27,02,51,9.60
2009,06,27,02,52,9.60
2009,06,27,02,53,9.60
2009,06,27,02,54,9.60
2009,06,27,02,55,9.50
2009,06,27,02,56,9.50
2009,06,27,02,57,9.50
2009,06,27,02,58,9.50
2009,06,27,02,59,9.40
2009,06,27,03,00,9.40
2009,06,27,03,01,9.40
2009,06,27,03,02,9.40
2009,06,27,03,03,9.30
2009,06,27,03,04,9.30
2009,06,27,03,05,9.30
2009,06,27,03,06,9.20
2009,06,27,03,07,9.20
2009,06,27,03,08,9.20
2009,06,27,03,09,9.20
2009,06,27,03,10,9.20
2009,06,27,03,11,9.20
2009,06,27,03,12,9.10
2009,06,27,03,13,9.10
2009,06,27,03,14,9.10
2009,06,27,03,15,9.00
2009,06,27,03,16,9.00
2009,06,27,03,17,9.00
2009,06,27,03,18,8.90
2009,06,27,03,19,8.90
2009,06,27,03,20,8.90
2009,06,27,03,21,8.90
2009,06,27,03,22,8.80
2009,06,27,03,23,8.80
2009,06,27,03,24,8.80
2009,06,27,03,25,8.80
2009,06,27,03,26,8.80
2009,06,27,03,27,8.80
2009,06,27,03,28,8.80
2009,06,27,03,29,8.80
2009,06,27,03,30,8.80
2009,06,27,03,31,8.70
2009,06,27,03,32,8.70
2009,06,27,03,33,8.70
2009,06,27,03,34,8.70
2009,06,27,03,35,8.70
2009,06,27,03,36,8.60
2009,06,27,03,37,8.60
2009,06,27,03,38,8.60
2009,06,27,03,39,8.60
2009,06,27,03,40,8.60
2009,06,27,03,41,8.60
2009,06,27,03,42,8.60
2009,06,27,03,43,8.50
2009,06,27,03,44,8.50
2009,06,27,03,45,8.50
2009,06,27,03,46,8.50
2009,06,27,03,47,8.50
2009,06,27,03,48,8.50
2009,06,27,03,49,8.40
2009,06,27,03,50,8.40
2009,06,27,03,51,8.40
2009,06,27,03,52,8.40
2009,06,27,03,53,8.30
2009,06,27,03,54,8.30
2009,06,27,03,55,8.30
2009,06,27,03,56,8.30
2009,06,27,03,57,8.30
2009,06,27,03,58,8.30
2009,06,27,03,59,8.30
2009,06,27,04,00,8.30
2009,06,27,04,01,8.20
2009,06,27,04,02,8.20
2009,06,27,04,03,8.20
2009,06,27,04,04,8.20
2009,06,27,04,05,8.20
2009,06,27,04,06,8.10
2009,06,27,04,07,8.10
2009,06,27,04,08,8.10
2009,06,27,04,09,8.10
2009,06,27,04,10,8.00
2009,06,27,04,11,8.00
2009,06,27,04,12,8.00
2009,06,27,04,13,8.00
2009,06,27,04,14,8.00
2009,06,27,04,15,8.00
2009,06,27,04,16,8.00
2009,06,27,04,17,8.00
2009,06,27,04,18,8.00
2009,06,27,04,19,8.00
2009,06,27,04,20,8.00
2009,06,27,04,21,8.00
2009,06,27,04,22,8.00
2009,06,27,04,23,8.00
2009,06,27,04,24,8.00
2009,06,27,04,25,8.00
2009,06,27,04,26,8.00
2009,06,27,04,27,8.00
2009,06,27,04,28,8.00
2009,06,27,04,29,8.00
2009,06,27,04,30,8.00
2009,06,27,04,31,8.00
2009,06,27,04,32,8.00
2009,06,27,04,33,7.90
2009,06,27,04,34,7.90
2009,06,27,04,35,7.90
2009,06,27,04,36,7.90
2009,06,27,04,37,7.90
2009,06,27,04,38,7.90
2009,06,27,04,39,7.90
2009,06,27,04,40,7.90
2009,06,27,04,41,7.90
2009,06,27,04,42,7.90
2009,06,27,04,43,7.80
2009,06,27,04,44,7.80
2009,06,27,04,45,7.80
2009,06,27,04,46,7.80
2009,06,27,04,47,7.80
2009,06,27,04,48,7.80
2009,06,27,04,49,7.80
2009,06,27,04,50,7.70
2009,06,27,04,51,7.70
2009,06,27,04,52,7.70
2009,06,27,04,53,7.70
2009,06,27,04,54,7.70
2009,06,27,04,55,7.60
2009,06,27,04,56,7.60
2009,06,27,04,57,7.60
2009,06,27,04,58,7.60
2009,06,27,04,59,7.60
2009,06,27,05,00,7.60
2009,06,27,05,01,7.60
2009,06,27,05,02,7.60
2009,06,27,05,03,7.60
2009,06,27,05,04,7.60
2009,06,27,05,05,7.50
2009,06,27,05,06,7.50
2009,06,27,05,07,7.50
2009,06,27,05,08,7.50
2009,06,27,05,09,7.40
2009,06,27,05,10,7.40
2009,06,27,05,11,7.40
2009,06,27,05,12,7.30
2009,06,27,05,13,7.30
2009,06,27,05,14,7.30
2009,06,27,05,15,7.20
2009,06,27,05,16,7.20
2009,06,27,05,17,7.20
2009,06,27,05,18,7.20
2009,06,27,05,19,7.20
2009,06,27,05,20,7.20
2009,06,27,05,21,7.20
2009,06,27,05,22,7.20
2009,06,27,05,23,7.20
2009,06,27,05,24,7.30
2009,06,27,05,25,7.30
2009,06,27,05,26,7.30
2009,06,27,05,27,7.30
2009,06,27,05,28,7.30
2009,06,27,05,29,7.30
2009,06,27,05,30,7.30
2009,06,27,05,31,7.30
2009,06,27,05,32,7.30
2009,06,27,05,33,7.30
2009,06,27,05,34,7.30
2009,06,27,05,35,7.40
2009,06,27,05,36,7.40
2009,06,27,05,37,7.40
2009,06,27,05,38,7.40
2009,06,27,05,39,7.40
2009,06,27,05,40,7.40
2009,06,27,05,41,7.40
2009,06,27,05,42,7.40
2009,06,27,05,43,7.40
2009,06,27,05,44,7.40
2009,06,27,05,45,7.40
2009,06,27,05,46,7.30
2009,06,27,05,47,7.30
2009,06,27,05,48,7.30
2009,06,27,05,49,7.30
2009,06,27,05,50,7.30
2009,06,27,05,51,7.30
2009,06,27,05,52,7.30
2009,06,27,05,53,7.30
2009,06,27,05,54,7.40
2009,06,27,05,55,7.40
2009,06,27,05,56,7.40
2009,06,27,05,57,7.40
2009,06,27,05,58,7.40
2009,06,27,05,59,7.40
2009,06,27,06,00,7.40
2009,06,27,06,01,7.40
2009,06,27,06,02,7.40
2009,06,27,06,03,7.40
2009,06,27,06,04,7.50
2009,06,27,06,05,7.50
2009,06,27,06,06,7.50
2009,06,27,06,07,7.60
2009,06,27,06,08,7.60
2009,06,27,06,09,7.60
2009,06,27,06,10,7.70
2009,06,27,06,11,7.70
2009,06,27,06,12,7.70
2009,06,27,06,13,7.80
2009,06,27,06,14,7.80
2009,06,27,06,15,7.80
2009,06,27,06,16,7.90
2009,06,27,06,17,7.90
2009,06,27,06,18,7.90
2009,06,27,06,19,8.00
2009,06,27,06,20,8.00
2009,06,27,06,21,8.10
2009,06,27,06,22,8.10
2009,06,27,06,23,8.20
2009,06,27,06,24,8.20
2009,06,27,06,25,8.30
2009,06,27,06,26,8.30
2009,06,27,06,27,8.30
2009,06,27,06,28,8.40
2009,06,27,06,29,8.40
2009,06,27,06,30,8.50
2009,06,27,06,31,8.60
2009,06,27,06,32,8.60
2009,06,27,06,33,8.70
2009,06,27,06,34,8.80
2009,06,27,06,35,8.90
2009,06,27,06,36,9.00
2009,06,27,06,37,9.10
2009,06,27,06,38,9.20
2009,06,27,06,39,9.20
2009,06,27,06,40,9.30
2009,06,27,06,41,9.30
2009,06,27,06,42,9.30
2009,06,27,06,43,9.40
2009,06,27,06,44,9.50
2009,06,27,06,45,9.60
2009,06,27,06,46,9.60
2009,06,27,06,47,9.60
2009,06,27,06,48,9.70
2009,06,27,06,49,9.70
2009,06,27,06,50,9.70
2009,06,27,06,51,9.70
2009,06,27,06,52,9.80
2009,06,27,06,53,9.80
2009,06,27,06,54,9.90
2009,06,27,06,55,10.00
2009,06,27,06,56,10.00
2009,06,27,06,57,10.10
2009,06,27,06,58,10.20
2009,06,27,06,59,10.20
2009,06,27,07,00,10.30
2009,06,27,07,01,10.30
2009,06,27,07,02,10.30
2009,06,27,07,03,10.40
2009,06,27,07,04,10.40
2009,06,27,07,05,10.40
2009,06,27,07,06,10.50
2009,06,27,07,07,10.50
2009,06,27,07,08,10.50
2009,06,27,07,09,10.60
2009,06,27,07,10,10.70
2009,06,27,07,11,10.80
2009,06,27,07,12,10.80
2009,06,27,07,13,10.90
2009,06,27,07,14,11.00
2009,06,27,07,15,11.10
2009,06,27,07,16,11.20
2009,06,27,07,17,11.30
2009,06,27,07,18,11.40
2009,06,27,07,19,11.40
2009,06,27,07,20,11.50
2009,06,27,07,21,11.60
2009,06,27,07,22,11.60
2009,06,27,07,23,11.60
2009,06,27,07,24,11.70
2009,06,27,07,25,11.70
2009,06,27,07,26,11.80
2009,06,27,07,27,11.90
2009,06,27,07,28,12.00
2009,06,27,07,29,12.10
2009,06,27,07,30,12.10
2009,06,27,07,31,12.20
2009,06,27,07,32,12.20
2009,06,27,07,33,12.30
2009,06,27,07,34,12.30
2009,06,27,07,35,12.30
2009,06,27,07,36,12.30
2009,06,27,07,37,12.20
2009,06,27,07,38,12.20
2009,06,27,07,39,12.20
2009,06,27,07,40,12.20
2009,06,27,07,41,12.10
2009,06,27,07,42,12.10
2009,06,27,07,43,12.00
2009,06,27,07,44,12.00
2009,06,27,07,45,12.00
2009,06,27,07,46,11.90
2009,06,27,07,47,11.90
2009,06,27,07,48,11.90
2009,06,27,07,49,12.00
2009,06,27,07,50,12.00
2009,06,27,07,51,12.00
2009,06,27,07,52,12.10
2009,06,27,07,53,12.10
2009,06,27,07,54,12.10
2009,06,27,07,55,12.10
2009,06,27,07,56,12.10
2009,06,27,07,57,12.10
2009,06,27,07,58,12.10
2009,06,27,07,59,12.20
2009,06,27,08,00,12.20
2009,06,27,08,01,12.30
2009,06,27,08,02,12.30
2009,06,27,08,03,12.40
2009,06,27,08,04,12.40
2009,06,27,08,05,12.40
2009,06,27,08,06,12.40
2009,06,27,08,07,12.40
2009,06,27,08,08,12.40
2009,06,27,08,09,12.50
2009,06,27,08,10,12.50
2009,06,27,08,11,12.50
2009,06,27,08,12,12.50
2009,06,27,08,13,12.60
2009,06,27,08,14,12.60
2009,06,27,08,15,12.50
2009,06,27,08,16,12.50
2009,06,27,08,17,12.50
2009,06,27,08,18,12.50
2009,06,27,08,19,12.60
2009,06,27,08,20,12.60
2009,06,27,08,21,12.50
2009,06,27,08,22,12.50
2009,06,27,08,23,12.50
2009,06,27,08,24,12.50
2009,06,27,08,25,12.50
2009,06,27,08,26,12.50
2009,06,27,08,27,12.60
2009,06,27,08,28,12.60
2009,06,27,08,29,12.50
2009,06,27,08,30,12.50
2009,06,27,08,31,12.50
2009,06,27,08,32,12.60
2009,06,27,08,33,12.60
2009,06,27,08,34,12.60
2009,06,27,08,35,12.60
2009,06,27,08,36,12.60
2009,06,27,08,37,12.60
2009,06,27,08,38,12.70
2009,06,27,08,39,12.80
2009,06,27,08,40,12.80
2009,06,27,08,41,12.80
2009,06,27,08,42,12.90
2009,06,27,08,43,12.90
2009,06,27,08,44,12.90
2009,06,27,08,45,13.00
2009,06,27,08,46,13.00
2009,06,27,08,47,12.90
2009,06,27,08,48,13.00
2009,06,27,08,49,13.00
2009,06,27,08,50,13.10
2009,06,27,08,51,13.00
2009,06,27,08,52,13.00
2009,06,27,08,53,13.00
2009,06,27,08,54,12.90
2009,06,27,08,55,12.90
2009,06,27,08,56,13.00
2009,06,27,08,57,13.00
2009,06,27,08,58,13.20
2009,06,27,08,59,13.20
2009,06,27,09,00,13.30
2009,06,27,09,01,13.30
2009,06,27,09,02,13.30
2009,06,27,09,03,13.30
2009,06,27,09,04,13.30
2009,06,27,09,05,13.30
2009,06,27,09,06,13.30
2009,06,27,09,07,13.30
2009,06,27,09,08,13.30
2009,06,27,09,09,13.30
2009,06,27,09,10,13.20
2009,06,27,09,11,13.20
2009,06,27,09,12,13.20
2009,06,27,09,13,13.20
2009,06,27,09,14,13.20
2009,06,27,09,15,13.20
2009,06,27,09,16,13.20
2009,06,27,09,17,13.20
2009,06,27,09,18,13.20
2009,06,27,09,19,13.30
2009,06,27,09,20,13.40
2009,06,27,09,21,13.40
2009,06,27,09,22,13.50
2009,06,27,09,23,13.50
2009,06,27,09,24,13.50
2009,06,27,09,25,13.60
2009,06,27,09,26,13.60
2009,06,27,09,27,13.50
2009,06,27,09,28,13.50
2009,06,27,09,29,13.40
2009,06,27,09,30,13.40
2009,06,27,09,31,13.40
2009,06,27,09,32,13.50
2009,06,27,09,33,13.50
2009,06,27,09,34,13.60
2009,06,27,09,35,13.60
2009,06,27,09,36,13.60
2009,06,27,09,37,13.70
2009,06,27,09,38,13.70
2009,06,27,09,39,13.80
2009,06,27,09,40,13.70
2009,06,27,09,41,13.70
2009,06,27,09,42,13.80
2009,06,27,09,43,13.80
2009,06,27,09,44,13.80
2009,06,27,09,45,13.80
2009,06,27,09,46,13.90
2009,06,27,09,47,14.00
2009,06,27,09,48,14.10
2009,06,27,09,49,14.20
2009,06,27,09,50,14.20
2009,06,27,09,51,14.20
2009,06,27,09,52,14.20
2009,06,27,09,53,14.30
2009,06,27,09,54,14.40
2009,06,27,09,55,14.30
2009,06,27,09,56,14.30
2009,06,27,09,57,14.40
2009,06,27,09,58,14.30
2009,06,27,09,59,14.30
2009,06,27,10,00,14.40
2009,06,27,10,01,14.30
2009,06,27,10,02,14.30
2009,06,27,10,03,14.20
2009,06,27,10,04,14.10
2009,06,27,10,05,14.10
2009,06,27,10,06,14.00
2009,06,27,10,07,13.80
2009,06,27,10,08,13.70
2009,06,27,10,09,13.60
2009,06,27,10,10,13.50
2009,06,27,10,11,13.40
2009,06,27,10,12,13.40
2009,06,27,10,13,13.40
2009,06,27,10,14,13.40
2009,06,27,10,15,13.40
2009,06,27,10,16,13.30
2009,06,27,10,17,13.20
2009,06,27,10,18,13.10
2009,06,27,10,19,13.00
2009,06,27,10,20,12.90
2009,06,27,10,21,12.80
2009,06,27,10,22,12.90
2009,06,27,10,23,13.00
2009,06,27,10,24,13.10
2009,06,27,10,25,13.10
2009,06,27,10,26,13.10
2009,06,27,10,27,13.20
2009,06,27,10,28,13.20
2009,06,27,10,29,13.10
2009,06,27,10,30,13.10
2009,06,27,10,31,13.00
2009,06,27,10,32,13.00
2009,06,27,10,33,13.00
2009,06,27,10,34,12.90
2009,06,27,10,35,13.00
2009,06,27,10,36,13.00
2009,06,27,10,37,13.10
2009,06,27,10,38,13.20
2009,06,27,10,39,13.30
2009,06,27,10,40,13.30
2009,06,27,10,41,13.30
2009,06,27,10,42,13.40
2009,06,27,10,43,13.40
2009,06,27,10,44,13.40
2009,06,27,10,45,13.40
2009,06,27,10,46,13.40
2009,06,27,10,47,13.50
2009,06,27,10,48,13.40
2009,06,27,10,49,13.40
2009,06,27,10,50,13.40
2009,06,27,10,51,13.40
2009,06,27,10,52,13.40
2009,06,27,10,53,13.40
2009,06,27,10,54,13.50
2009,06,27,10,55,13.60
2009,06,27,10,56,13.70
2009,06,27,10,57,13.80
2009,06,27,10,58,13.70
2009,06,27,10,59,13.80
2009,06,27,11,00,13.80
2009,06,27,11,01,13.80
2009,06,27,11,02,13.90
2009,06,27,11,03,14.00
2009,06,27,11,04,14.10
2009,06,27,11,05,14.10
2009,06,27,11,06,14.00
2009,06,27,11,07,13.80
2009,06,27,11,08,13.70
2009,06,27,11,09,13.70
2009,06,27,11,10,13.70
2009,06,27,11,11,13.70
2009,06,27,11,12,13.60
2009,06,27,11,13,13.60
2009,06,27,11,14,13.70
2009,06,27,11,15,13.70
2009,06,27,11,16,13.70
2009,06,27,11,17,13.60
2009,06,27,11,18,13.50
2009,06,27,11,19,13.40
2009,06,27,11,20,13.40
2009,06,27,11,21,13.30
2009,06,27,11,22,13.20
2009,06,27,11,23,13.20
2009,06,27,11,24,13.20
2009,06,27,11,25,13.30
2009,06,27,11,26,13.30
2009,06,27,11,27,13.20
2009,06,27,11,28,13.10
2009,06,27,11,29,13.10
2009,06,27,11,30,13.20
2009,06,27,11,31,13.10
2009,06,27,11,32,13.10
2009,06,27,11,33,13.10
2009,06,27,11,34,13.10
2009,06,27,11,35,13.20
2009,06,27,11,36,13.20
2009,06,27,11,37,13.40
2009,06,27,11,38,13.50
2009,06,27,11,39,13.60
2009,06,27,11,40,13.80
2009,06,27,11,41,13.80
2009,06,27,11,42,13.70
2009,06,27,11,43,13.60
2009,06,27,11,44,13.50
2009,06,27,11,45,13.30
2009,06,27,11,46,13.20
2009,06,27,11,47,13.20
2009,06,27,11,48,13.20
2009,06,27,11,49,13.30
2009,06,27,11,50,13.30
2009,06,27,11,51,13.40
2009,06,27,11,52,13.50
2009,06,27,11,53,13.50
2009,06,27,11,54,13.60
2009,06,27,11,55,13.50
2009,06,27,11,56,13.30
2009,06,27,11,57,13.30
2009,06,27,11,58,13.40
2009,06,27,11,59,13.50
2009,06,27,12,00,13.70
2009,06,27,12,01,13.90
2009,06,27,12,02,13.90
2009,06,27,12,03,14.00
2009,06,27,12,04,14.00
2009,06,27,12,05,14.10
2009,06,27,12,06,14.30
2009,06,27,12,07,14.30
2009,06,27,12,08,14.30
2009,06,27,12,09,14.30
2009,06,27,12,10,14.30
2009,06,27,12,11,14.30
2009,06,27,12,12,14.30
2009,06,27,12,13,14.20
2009,06,27,12,14,14.10
2009,06,27,12,15,14.00
2009,06,27,12,16,14.00
2009,06,27,12,17,14.00
2009,06,27,12,18,14.00
2009,06,27,12,19,14.10
2009,06,27,12,20,14.10
2009,06,27,12,21,14.10
2009,06,27,12,22,14.10
2009,06,27,12,23,14.10
2009,06,27,12,24,14.10
2009,06,27,12,25,14.10
2009,06,27,12,26,14.00
2009,06,27,12,27,14.00
2009,06,27,12,28,13.90
2009,06,27,12,29,13.90
2009,06,27,12,30,13.90
2009,06,27,12,31,14.00
2009,06,27,12,32,14.10
2009,06,27,12,33,14.20
2009,06,27,12,34,14.30
2009,06,27,12,35,14.40
2009,06,27,12,36,14.50
2009,06,27,12,37,14.60
2009,06,27,12,38,14.60
2009,06,27,12,39,14.50
2009,06,27,12,40,14.50
2009,06,27,12,41,14.40
2009,06,27,12,42,14.40
2009,06,27,12,43,14.40
2009,06,27,12,44,14.30
2009,06,27,12,45,14.20
2009,06,27,12,46,14.30
2009,06,27,12,47,14.30
2009,06,27,12,48,14.30
2009,06,27,12,49,14.30
2009,06,27,12,50,14.40
2009,06,27,12,51,14.40
2009,06,27,12,52,14.40
2009,06,27,12,53,14.30
2009,06,27,12,54,14.30
2009,06,27,12,55,14.30
2009,06,27,12,56,14.40
2009,06,27,12,57,14.40
2009,06,27,12,58,14.50
2009,06,27,12,59,14.60
2009,06,27,13,00,14.60
2009,06,27,13,01,14.70
2009,06,27,13,02,14.90
2009,06,27,13,03,15.00
2009,06,27,13,04,15.00
2009,06,27,13,05,15.00
2009,06,27,13,06,15.10
2009,06,27,13,07,15.20
2009,06,27,13,08,15.20
2009,06,27,13,09,15.30
2009,06,27,13,10,15.30
2009,06,27,13,11,15.20
2009,06,27,13,12,15.20
2009,06,27,13,13,15.20
2009,06,27,13,14,15.10
2009,06,27,13,15,15.00
2009,06,27,13,16,15.00
2009,06,27,13,17,15.10
2009,06,27,13,18,15.20
2009,06,27,13,19,15.20
2009,06,27,13,20,15.10
2009,06,27,13,21,15.00
2009,06,27,13,22,15.00
2009,06,27,13,23,15.20
2009,06,27,13,24,15.20
2009,06,27,13,25,15.30
2009,06,27,13,26,15.30
2009,06,27,13,27,15.40
2009,06,27,13,28,15.40
2009,06,27,13,29,15.30
2009,06,27,13,30,15.20
2009,06,27,13,31,15.20
2009,06,27,13,32,15.30
2009,06,27,13,33,15.40
2009,06,27,13,34,15.50
2009,06,27,13,35,15.60
2009,06,27,13,36,15.70
2009,06,27,13,37,15.80
2009,06,27,13,38,15.90
2009,06,27,13,39,16.10
2009,06,27,13,40,16.20
2009,06,27,13,41,16.30
2009,06,27,13,42,16.40
2009,06,27,13,43,16.80
2009,06,27,13,44,17.20
2009,06,27,13,45,17.60
2009,06,27,13,46,18.10
2009,06,27,13,47,18.30
2009,06,27,13,48,18.60
2009,06,27,13,49,19.00
2009,06,27,13,50,19.30
2009,06,27,13,51,19.50
2009,06,27,13,52,19.70
2009,06,27,13,53,19.90
2009,06,27,13,54,20.00
2009,06,27,13,55,20.20
2009,06,27,13,56,20.30
2009,06,27,13,57,20.40
2009,06,27,13,58,20.40
2009,06,27,13,59,20.40
2009,06,27,14,00,20.50
2009,06,27,14,01,20.60
2009,06,27,14,02,20.60
2009,06,27,14,03,20.60
2009,06,27,14,04,20.50
2009,06,27,14,05,20.40
2009,06,27,14,06,20.40
2009,06,27,14,07,20.40
2009,06,27,14,08,20.40
2009,06,27,14,09,20.40
2009,06,27,14,10,20.40
2009,06,27,14,11,20.40
2009,06,27,14,12,20.30
2009,06,27,14,13,20.30
2009,06,27,14,14,20.30
2009,06,27,14,15,20.40
2009,06,27,14,16,20.50
2009,06,27,14,17,20.50
2009,06,27,14,18,20.70
2009,06,27,14,19,20.70
2009,06,27,14,20,20.80
2009,06,27,14,21,20.80
2009,06,27,14,22,20.70
2009,06,27,14,23,20.80
2009,06,27,14,24,20.90
2009,06,27,14,25,21.00
2009,06,27,14,26,21.00
2009,06,27,14,27,21.10
2009,06,27,14,28,21.10
2009,06,27,14,29,21.10
2009,06,27,14,30,21.00
2009,06,27,14,31,21.00
2009,06,27,14,32,21.10
2009,06,27,14,33,21.20
2009,06,27,14,34,21.20
2009,06,27,14,35,21.30
2009,06,27,14,36,21.20
2009,06,27,14,37,21.30
2009,06,27,14,38,21.30
2009,06,27,14,39,21.30
2009,06,27,14,40,21.30
2009,06,27,14,41,21.40
2009,06,27,14,42,21.60
2009,06,27,14,43,21.70
2009,06,27,14,44,21.80
2009,06,27,14,45,21.80
2009,06,27,14,46,21.80
2009,06,27,14,47,21.70
2009,06,27,14,48,21.70
2009,06,27,14,49,21.80
2009,06,27,14,50,21.80
2009,06,27,14,51,21.80
2009,06,27,14,52,21.70
2009,06,27,14,53,21.70
2009,06,27,14,54,21.70
2009,06,27,14,55,21.80
2009,06,27,14,56,21.80
2009,06,27,14,57,21.90
2009,06,27,14,58,21.90
2009,06,27,14,59,22.00
2009,06,27,15,00,22.00
2009,06,27,15,01,22.10
2009,06,27,15,02,22.10
2009,06,27,15,03,22.10
2009,06,27,15,04,22.00
2009,06,27,15,05,21.90
2009,06,27,15,06,21.90
2009,06,27,15,07,22.00
2009,06,27,15,08,22.00
2009,06,27,15,09,22.10
2009,06,27,15,10,22.10
2009,06,27,15,11,22.20
2009,06,27,15,12,22.20
2009,06,27,15,13,22.20
2009,06,27,15,14,22.10
2009,06,27,15,15,22.10
2009,06,27,15,16,22.10
2009,06,27,15,17,22.10
2009,06,27,15,18,22.10
2009,06,27,15,19,22.20
2009,06,27,15,20,22.10
2009,06,27,15,21,22.10
2009,06,27,15,22,22.10
2009,06,27,15,23,22.10
2009,06,27,15,24,22.00
2009,06,27,15,25,22.10
2009,06,27,15,26,22.00
2009,06,27,15,27,22.10
2009,06,27,15,28,22.00
2009,06,27,15,29,22.00
2009,06,27,15,30,22.00
2009,06,27,15,31,22.00
2009,06,27,15,32,21.90
2009,06,27,15,33,21.80
2009,06,27,15,34,21.80
2009,06,27,15,35,21.80
2009,06,27,15,36,21.80
2009,06,27,15,37,21.80
2009,06,27,15,38,21.70
2009,06,27,15,39,21.70
2009,06,27,15,40,21.60
2009,06,27,15,41,21.60
2009,06,27,15,42,21.70
2009,06,27,15,43,21.80
2009,06,27,15,44,21.80
2009,06,27,15,45,21.70
2009,06,27,15,46,21.50
2009,06,27,15,47,21.40
2009,06,27,15,48,21.40
2009,06,27,15,49,21.40
2009,06,27,15,50,21.30
2009,06,27,15,51,21.20
2009,06,27,15,52,21.20
2009,06,27,15,53,21.20
2009,06,27,15,54,21.20
2009,06,27,15,55,21.20
2009,06,27,15,56,21.10
2009,06,27,15,57,20.90
2009,06,27,15,58,20.90
2009,06,27,15,59,20.90
2009,06,27,16,00,20.80
2009,06,27,16,01,20.70
2009,06,27,16,02,20.70
2009,06,27,16,03,20.70
2009,06,27,16,04,20.80
2009,06,27,16,05,20.80
2009,06,27,16,06,20.80
2009,06,27,16,07,20.60
2009,06,27,16,08,20.50
2009,06,27,16,09,20.50
2009,06,27,16,10,20.50
2009,06,27,16,11,20.50
2009,06,27,16,12,20.60
2009,06,27,16,13,20.60
2009,06,27,16,14,20.70
2009,06,27,16,15,20.70
2009,06,27,16,16,20.80
2009,06,27,16,17,20.80
2009,06,27,16,18,21.00
2009,06,27,16,19,21.10
2009,06,27,16,20,21.10
2009,06,27,16,21,21.20
2009,06,27,16,22,21.30
2009,06,27,16,23,21.40
2009,06,27,16,24,21.50
2009,06,27,16,25,21.50
2009,06,27,16,26,21.60
2009,06,27,16,27,21.60
2009,06,27,16,28,21.50
2009,06,27,16,29,21.40
2009,06,27,16,30,21.30
2009,06,27,16,31,21.30
2009,06,27,16,32,21.30
2009,06,27,16,33,21.30
2009,06,27,16,34,21.30
2009,06,27,16,35,21.30
2009,06,27,16,36,21.30
2009,06,27,16,37,21.40
2009,06,27,16,38,21.40
2009,06,27,16,39,21.40
2009,06,27,16,40,21.40
2009,06,27,16,41,21.50
2009,06,27,16,42,21.50
2009,06,27,16,43,21.50
2009,06,27,16,44,21.40
2009,06,27,16,45,21.40
2009,06,27,16,46,21.30
2009,06,27,16,47,21.30
2009,06,27,16,48,21.30
2009,06,27,16,49,21.30
2009,06,27,16,50,21.40
2009,06,27,16,51,21.50
2009,06,27,16,52,21.50
2009,06,27,16,53,21.60
2009,06,27,16,54,21.60
2009,06,27,16,55,21.60
2009,06,27,16,56,21.60
2009,06,27,16,57,21.50
2009,06,27,16,58,21.30
2009,06,27,16,59,21.10
2009,06,27,17,00,20.90
2009,06,27,17,01,20.70
2009,06,27,17,02,20.60
2009,06,27,17,03,20.60
2009,06,27,17,04,20.50
2009,06,27,17,05,20.40
2009,06,27,17,06,20.40
2009,06,27,17,07,20.20
2009,06,27,17,08,20.10
2009,06,27,17,09,20.00
2009,06,27,17,10,19.80
2009,06,27,17,11,19.60
2009,06,27,17,12,19.40
2009,06,27,17,13,19.20
2009,06,27,17,14,19.00
2009,06,27,17,15,18.90
2009,06,27,17,16,18.70
2009,06,27,17,17,18.60
2009,06,27,17,18,18.50
2009,06,27,17,19,18.40
2009,06,27,17,20,18.30
2009,06,27,17,21,18.30
2009,06,27,17,22,18.20
2009,06,27,17,23,18.20
2009,06,27,17,24,18.20
2009,06,27,17,25,18.10
2009,06,27,17,26,18.10
2009,06,27,17,27,18.20
2009,06,27,17,28,18.20
2009,06,27,17,29,18.20
2009,06,27,17,30,18.20
2009,06,27,17,31,18.20
2009,06,27,17,32,18.20
2009,06,27,17,33,18.20
2009,06,27,17,34,18.20
2009,06,27,17,35,18.20